Home   Weather   Olongapo   Past weeks

Flag for Philippines Past Weather in Olongapo, Philippines — Yesterday and Last 2 Weeks

Now
82 °F

Light rain. Mostly cloudy.


Feels Like: 91 °F
Forecast: 75 / 79 °F
Wind: 16 mph from Southwest

Location: Subic Bay Weather Station

Current Time: Jul 28, 2017 at 11:03:43 pm

Latest Report: Jul 28, 2017 at 10:00 pm


Visibility: 4 mi

Pressure: 29.71 "Hg

Humidity: 84%

Dew Point: 77 °F

Location of OlongapoLocation

Past Weather in Olongapo — Graph

°F

Olongapo Temperature Yesterday

Maximum temperature yesterday: 86 °F (at 1:00 pm)
Minimum temperature yesterday: 75 °F (at 5:00 am)
Average temperature yesterday: 80 °F

High & Low Weather Summary for the Past Weeks

 TemperatureHumidityPressure
High91 °F (Jul 17, 1:00 pm)100% (Jul 20, 7:00 pm)29.86 "Hg (Jul 20, 7:00 pm)
Low73 °F (Jul 22, 8:00 am)43% (Jul 28, 5:00 am)29.56 "Hg (Jul 26, 7:00 am)
Average80 °F82%29.75 "Hg
* Reported Jul 13 9:00 pm — Jul 28 9:00 pm, Olongapo. Weather by CustomWeather, © 2017

Note: Actual official high and low records may vary slightly from our data, if they occured in-between our weather recording intervals... More about our weather records

Advertising

Olongapo Weather History for the Previous 24 Hours

Scroll right to see more
 ConditionsComfort  
Time TempWeatherWind HumidityBarometerVisibility
9:00 pm
Fri, Jul 28
81 °FLight rain. Mostly cloudy.23 mph89%29.68 "Hg3 mi
8:00 pm82 °FLight rain. Mostly cloudy.26 mph84%29.68 "Hg3 mi
7:00 pm84 °FThunderstorms. Mostly cloudy.28 mph79%29.68 "Hg3 mi
6:00 pm82 °FRain. More clouds than sun.23 mph84%29.65 "Hg4 mi
5:00 pm84 °FLight rain. More clouds than sun.29 mph74%29.65 "Hg4 mi
4:00 pm84 °FScattered showers. More clouds than sun.21 mph79%29.65 "Hg4 mi
3:00 pm82 °FRain. More clouds than sun.25 mph89%29.65 "Hg4 mi
2:00 pm84 °FScattered showers. More clouds than sun.24 mph79%29.65 "Hg4 mi
1:00 pm84 °FScattered showers. More clouds than sun.16 mph79%29.68 "Hg5 mi
12:00 pm84 °FLight rain. More clouds than sun.24 mph79%29.68 "Hg4 mi
11:00 am81 °FLight rain. More clouds than sun.23 mph84%29.68 "Hg4 mi
10:00 am84 °FLight rain. More clouds than sun.14 mph79%29.68 "Hg6 mi
9:00 am84 °FScattered showers. More clouds than sun.25 mph79%29.68 "HgN/A
8:00 am84 °FMore clouds than sun.24 mph74%29.68 "HgN/A
7:00 am84 °FLight rain. More clouds than sun.26 mph79%29.68 "Hg6 mi
6:00 am84 °FRain. Broken clouds.26 mph79%29.65 "Hg4 mi
5:00 am84 °FRain. Partly cloudy.25 mph43%29.65 "Hg2 mi
4:00 am84 °FRain. Partly cloudy.21 mph79%29.62 "Hg2 mi
3:00 am82 °FRain. Partly cloudy.23 mph84%29.65 "Hg2 mi
2:00 am82 °FRain. Partly cloudy.18 mph84%29.65 "Hg4 mi
1:00 am82 °FRain. Passing clouds.12 mph84%29.68 "Hg6 mi
12:00 am81 °FRain. Mostly cloudy.13 mph89%29.71 "Hg4 mi
11:00 pm
Thu, Jul 27
77 °FRain. Mostly cloudy.9 mph94%29.74 "Hg2 mi
Weather by CustomWeather, © 2017

See weather overviewHow to use our weather pages